Satellite-Ground Cal/Val Region Overpasses Predictions

Prediction of Satellite NPP Overpassing Cal/Val Region: PacNW

Region Location: (Latitude: 10.00, Longitude: 139.50) to (Latitude: 22.70, Longitude: 165.60).

Table of predicted overpasses for the next 14.0 days since TLE Epoch: 10/19/2018
Interval Starting Time Starting Location Ending Time Ending Location
1 10/19/2018 14:52:37 ( 22.68, 161.85) 10/19/2018 14:56:12 ( 10.06, 158.86)
2 10/20/2018 03:43:12 ( 10.02, 144.02) 10/20/2018 03:46:47 ( 22.64, 141.02)
3 10/20/2018 14:34:45 ( 18.54, 165.60) 10/20/2018 14:37:10 ( 10.02, 163.61)
4 10/20/2018 16:15:04 ( 22.70, 141.24) 10/20/2018 16:17:06 ( 15.54, 139.51)
5 10/21/2018 03:24:10 ( 10.06, 148.76) 10/21/2018 03:27:45 ( 22.68, 145.77)
6 10/21/2018 15:56:03 ( 22.66, 145.99) 10/21/2018 15:59:38 ( 10.04, 142.99)
7 10/22/2018 03:05:08 ( 10.03, 153.53) 10/22/2018 03:08:43 ( 22.65, 150.53)
8 10/22/2018 15:37:00 ( 22.68, 150.75) 10/22/2018 15:40:36 ( 10.00, 147.74)
9 10/23/2018 02:46:05 ( 10.01, 158.29) 10/23/2018 02:49:41 ( 22.69, 155.28)
10 10/23/2018 15:17:59 ( 22.65, 155.50) 10/23/2018 15:21:34 ( 10.03, 152.50)
11 10/24/2018 02:27:04 ( 10.05, 163.04) 10/24/2018 02:30:39 ( 22.67, 160.04)
12 10/24/2018 14:58:56 ( 22.67, 160.26) 10/24/2018 15:02:31 ( 10.05, 157.26)
13 10/25/2018 02:10:41 ( 19.42, 165.59) 10/25/2018 02:11:36 ( 22.64, 164.80)
14 10/25/2018 03:49:31 ( 10.03, 142.42) 10/25/2018 03:53:00 ( 22.30, 139.51)
15 10/25/2018 14:39:54 ( 22.69, 165.02) 10/25/2018 14:43:30 ( 10.01, 162.01)
16 10/25/2018 16:21:24 ( 22.69, 139.65) 10/25/2018 16:21:33 ( 22.16, 139.51)
17 10/26/2018 03:30:29 ( 10.01, 147.18) 10/26/2018 03:34:05 ( 22.69, 144.17)
18 10/26/2018 16:02:23 ( 22.65, 144.39) 10/26/2018 16:05:58 ( 10.03, 141.39)
19 10/27/2018 03:11:27 ( 10.04, 151.93) 10/27/2018 03:15:02 ( 22.67, 148.93)
20 10/27/2018 15:43:20 ( 22.67, 149.15) 10/27/2018 15:46:55 ( 10.05, 146.16)
21 10/28/2018 02:52:25 ( 10.02, 156.69) 10/28/2018 02:56:00 ( 22.65, 153.69)
22 10/28/2018 15:24:18 ( 22.69, 153.92) 10/28/2018 15:27:54 ( 10.01, 150.90)
23 10/29/2018 02:33:22 ( 10.00, 161.45) 10/29/2018 02:36:58 ( 22.68, 158.44)
24 10/29/2018 15:05:16 ( 22.65, 158.66) 10/29/2018 15:08:51 ( 10.03, 155.67)
25 10/30/2018 02:15:06 ( 12.69, 165.59) 10/30/2018 02:17:56 ( 22.66, 163.20)
26 10/30/2018 03:55:51 ( 10.05, 140.82) 10/30/2018 03:57:28 ( 15.75, 139.50)
27 10/30/2018 14:46:14 ( 22.67, 163.42) 10/30/2018 14:49:49 ( 10.05, 160.43)
28 10/31/2018 03:36:48 ( 10.03, 145.58) 10/31/2018 03:40:23 ( 22.65, 142.59)
29 10/31/2018 14:30:16 ( 11.83, 165.59) 10/31/2018 14:30:47 ( 10.01, 165.17)
30 10/31/2018 16:08:41 ( 22.68, 142.81) 10/31/2018 16:12:17 ( 10.00, 139.80)
31 11/01/2018 03:17:46 ( 10.01, 150.35) 11/01/2018 03:21:22 ( 22.69, 147.33)
32 11/01/2018 15:49:40 ( 22.65, 147.56) 11/01/2018 15:53:15 ( 10.02, 144.56)


NCC Satellite Cal/Val Overpasses Prediction Service
